Weather in Norway House

Canada     53°59′25″N   97°48′56″W
temp.,
°C
wind,
m/s
gust,
m/s
humid.,
%
clouds,
%
prec.,
mm/h
press.,
hPa
HPBL,
m
7 may, fri
fri701:00−3n27965 0.0 1026155
04:00−4nnw24975 0.0 102784
07:00−2nnw259079 0.0 1027151
10:00+3n4656100 0.0 10271278
13:00+6n564258 0.0 10251495
16:00+8nne56355 0.0 10251518
19:00+6nne56415 0.0 10241250
22:000ne36716 0.0 1025114
8 may, sat
sat801:00−1nne39925 0.0 1026292
04:00−4nne269716 0.0 1027144
07:00−2nne377877 0.0 1027397
10:00+3ne465772 0.0 1027985
13:00+7nne46385 0.0 10261434
16:00+9ne57355 0.0 10251629
19:00+7ne57419 0.0 10251518
22:00+1ene26705 0.0 1028115
9 may, sun
sun901:00−1ne29875 0.0 1029217
04:00−3nne27965 0.0 1029161
07:00−2nne27875 0.0 1030242
10:00+4nne35445 0.0 1029970
13:00+9nne34271 0.0 10271580
16:00+11n44245 0.0 10261938
19:00+10nne44295 0.0 10261617
22:00+3ene22565 0.0 102731
10 may, mon
mon1001:00+1sse22675 0.0 102712
04:000s237078 0.0 102657
07:00+1ssw2563100 0.0 1026129
10:00+9sw3440100 0.0 1024492
13:00+13sw4531100 0.0 10231134
16:00+14sw5629100 0.0 1021958
19:00+11ssw4835100 0.0 1020347
22:00+5ssw3106084 0.0 1020177
11 may, tue
tue1101:00+4ssw3106281 0.0 1020156
04:00+3sw386585 0.0 1020133
07:00+5sw266193 0.0 1020126
10:00+15sw463267 0.0 1019438
13:00+18ssw562742 0.0 1018988
16:00+19sw682494 0.0 10181022
19:00+15sw4931100 0.0 1017319
22:00+8ssw31049100 0.0 1018168